Zurück zum Katalog

CHUANG XIN 19

CX-19

AktivWissenschaftPO
NORAD 58505·PAYLOAD·🇨🇳 China

Gestartet Dec 5, 2023 von South China Sea Launch Area

Loading…

Nächste Überflüge (nächste 24 Stunden)

TLE

AktuellSource: Space-Track

Epoche: Sep 14, 2026, 23:02 UTC

1 58505U 23190A   26257.95990418  .00000041  00000-0  48339-4 0  9991
2 58505  86.5009 301.5242 0001832 109.2344 250.8997 13.39558179136716

Verfolge CHUANG XIN 19 in Echtzeit mit AllMySat

Download on the App Store